Tracking 17855 objects as of 26-September-2016
HD Live streaming from Space Station
objects crossing your sky now

EDUSAT

Track EDUSAT now!
10-day predictions
EDUSAT is classified as:


NORAD ID: 37788
Int'l Code: 2011-044A
Perigee: 641.6 km
Apogee: 694.8 km
Inclination: 98.2 °
Period: 98.0 minutes
Semi major axis: 7039 km
RCS: 0.1421 m2 (medium)
Launch date: August 17, 2011
Source: Italy (IT)
Launch site: Orenburg, Russia (OREN)

EduSat is a microsatellite built by the University of Rome.
Your satellite tracking list
Your tracking list is empty





NASA's NSSDC Master Catalog

Two Line Element Set (TLE):
1 37788U 11044A   16269.15036146  .00000230  00000-0  46105-4 0  9998
2 37788  98.2281  19.3205 0037838 205.4534 275.1360 14.70578636273932
Source of the keplerian elements: AFSPC

N2YO: 474